Tracking 19192 objects as of 21-Jun-2018
HD Live streaming from Space Station
objects crossing your sky now

FENGYUN 1C DEB

Track FENGYUN 1C DEB now!
10-day predictions


NORAD ID: 31334
Int'l Code: 1999-025BQN
Perigee: 810.3 km
Apogee: 921.1 km
Inclination: 99.1 °
Period: 102.1 minutes
Semi major axis: 7236 km
RCS: 0.0121 m2 (small)
Launch date: May 10, 1999
Source: People's Republic of China (PRC)
Launch site: Taiyaun Space Center, China (TSC)

Note: This is SATELLITE DEBRIS
aabbcc
Your satellite tracking list
Your tracking list is empty




NASA's NSSDC Master Catalog

Two Line Element Set (TLE):
1 31334U 99025BQN 18169.87469481  .00001186  00000-0  67636-3 0  9998
2 31334  99.1259 202.7113 0076587 153.2242 207.2913 14.10231574572320
Source of the keplerian elements: AFSPC